TimeEST,TemperatureF,Dew PointF,Humidity,Sea Level PressureIn,VisibilityMPH,Wind Direction,Wind SpeedMPH,Gust SpeedMPH,PrecipitationIn,Events,Conditions,WindDirDegrees,DateUTC
12:53 AM,30.0,26.1,85,29.78,10.0,NW,3.5,-,N/A,,Overcast,310,2013-02-14 05:53:00
1:53 AM,30.0,26.1,85,29.77,10.0,NW,3.5,-,N/A,,Overcast,310,2013-02-14 06:53:00
2:53 AM,28.9,26.1,89,29.79,10.0,Calm,Calm,-,N/A,,Overcast,0,2013-02-14 07:53:00
3:53 AM,30.0,25.0,82,29.81,10.0,Calm,Calm,-,N/A,,Overcast,0,2013-02-14 08:53:00
4:53 AM,30.0,25.0,82,29.82,10.0,Calm,Calm,-,N/A,,Overcast,0,2013-02-14 09:53:00
5:53 AM,30.0,21.0,69,29.84,10.0,Calm,Calm,-,N/A,,Overcast,0,2013-02-14 10:53:00
6:53 AM,30.9,19.0,61,29.86,10.0,Calm,Calm,-,N/A,,Overcast,0,2013-02-14 11:53:00
7:53 AM,30.9,19.0,61,29.88,10.0,Calm,Calm,-,N/A,,Overcast,0,2013-02-14 12:53:00
8:53 AM,37.0,19.9,50,29.89,10.0,Calm,Calm,-,N/A,,Overcast,0,2013-02-14 13:53:00
9:53 AM,39.9,17.1,40,29.91,10.0,West,5.8,-,N/A,,Overcast,280,2013-02-14 14:53:00
10:53 AM,39.9,17.1,40,29.92,10.0,WSW,4.6,-,N/A,,Overcast,240,2013-02-14 15:53:00
11:53 AM,42.1,18.0,38,29.92,10.0,Calm,Calm,-,N/A,,Overcast,0,2013-02-14 16:53:00
12:53 PM,44.1,18.0,35,29.91,10.0,SW,3.5,-,N/A,,Overcast,220,2013-02-14 17:53:00
1:53 PM,43.0,18.0,37,29.90,10.0,Variable,3.5,-,N/A,,Overcast,0,2013-02-14 18:53:00
2:53 PM,44.1,19.0,37,29.91,10.0,Variable,4.6,-,N/A,,Overcast,0,2013-02-14 19:53:00
3:53 PM,42.1,18.0,38,29.91,10.0,Calm,Calm,-,N/A,,Mostly Cloudy,0,2013-02-14 20:53:00
4:53 PM,52.0,21.0,30,29.91,10.0,SSE,9.2,-,N/A,,Clear,150,2013-02-14 21:53:00
5:53 PM,35.1,21.9,59,29.93,10.0,Calm,Calm,-,N/A,,Clear,0,2013-02-14 22:53:00
6:53 PM,30.0,21.0,69,29.93,10.0,Calm,Calm,-,N/A,,Clear,0,2013-02-14 23:53:00
7:53 PM,30.0,21.0,69,29.93,10.0,Calm,Calm,-,N/A,,Partly Cloudy,0,2013-02-15 00:53:00
8:53 PM,30.9,21.0,67,29.91,10.0,Calm,Calm,-,N/A,,Overcast,0,2013-02-15 01:53:00
9:53 PM,30.0,21.0,69,29.91,10.0,Calm,Calm,-,N/A,,Overcast,0,2013-02-15 02:53:00
10:53 PM,30.9,21.0,67,29.89,10.0,Calm,Calm,-,N/A,,Overcast,0,2013-02-15 03:53:00
11:53 PM,33.1,21.0,61,29.88,10.0,Calm,Calm,-,N/A,,Overcast,0,2013-02-15 04:53:00